This demonstration page uses our WeatherBlox Daily Observations layout. Learn more.

Left ArrowRight Arrow

Hourly Observations for June 26, 2022

Temp ( °F °C ) Dew Point ( °F °C ) Humidity (%) Winds ( mph kmh ) Pressure ( in mb ) Visibility ( mi km ) Precip ( " mm )
12:15 am 00:15 Clear 58 14.2 51 10.6 79 79 N 6 9 30.28 1025 10 16 0.00 0.00
12:35 am 00:35 Clear 57 14.1 50 10.2 78 78 N 7 11 30.29 1026 10 16 0.00 0.00
12:55 am 00:55 Clear 57 13.9 50 9.8 77 77 N 5 7 30.29 1026 10 16 0.00 0.00
1:15 am 01:15 Clear 56 13.6 49 9.4 76 76 N 5 7 30.29 1026 10 16 0.00 0.00
1:35 am 01:35 Clear 55 12.8 49 9.4 80 80 N 7 11 30.29 1026 10 16 0.00 0.00
1:55 am 01:55 Clear 55 12.5 48 9 79 79 N 7 11 30.29 1026 10 16 0.00 0.00
2:15 am 02:15 Clear 55 13 47 8.5 74 74 N 12 19 30.29 1026 10 16 0.00 0.00
2:35 am 02:35 Clear 55 12.8 47 8.3 74 74 N 7 11 30.30 1026 10 16 0.00 0.00
2:55 am 02:55 Clear 53 11.9 47 8.5 80 80 N 8 13 30.31 1026 10 16 0.00 0.00
3:15 am 03:15 Clear 55 12.7 46 7.8 72 72 N 3 6 30.30 1026 10 16 0.00 0.00
3:35 am 03:35 Clear 55 12.6 46 7.5 71 71 NNW 7 11 30.30 1026 10 16 0.00 0.00
3:55 am 03:55 Clear 55 12.5 46 7.9 74 74 NNW 5 7 30.30 1026 10 16 0.00 0.00
4:15 am 04:15 Clear 55 12.6 46 7.8 73 73 N 9 15 30.31 1026 10 16 0.00 0.00
4:35 am 04:35 Clear 55 12.5 46 7.6 72 72 N 8 13 30.32 1027 10 16 0.00 0.00
4:55 am 04:55 Clear 55 12.5 46 7.6 72 72 N 9 15 30.32 1027 10 16 0.00 0.00
5:15 am 05:15 Clear 55 12.5 46 7.5 72 72 NNW 6 9 30.32 1027 10 16 0.00 0.00
5:35 am 05:35 Clear 54 12.3 45 7.2 71 71 N 6 9 30.33 1027 10 16 0.00 0.00
5:55 am 05:55 Partly Cloudy 53 11.9 46 7.6 75 75 N 7 11 30.35 1028 10 16 0.00 0.00
6:15 am 06:15 Mostly Cloudy 55 12.6 45 7.2 70 70 N 8 13 30.34 1027 10 16 0.00 0.00
6:35 am 06:35 Partly Cloudy 54 12.4 45 7 70 70 N 13 20 30.35 1028 10 16 0.00 0.00
6:50 am 06:50 Sunny 55 12.7 44 6.9 68 68 N 10 17 30.37 1028 10 16 0.00 0.00
7:15 am 07:15 Sunny 55 12.8 45 7.4 70 70 N 8 13 30.39 1029 10 16 0.00 0.00
7:35 am 07:35 Mostly Cloudy 56 13.4 46 7.5 68 68 N 8 13 30.40 1030 10 16 0.00 0.00
7:55 am 07:55 Cloudy 56 13.6 45 7.4 66 66 N 7 11 30.41 1030 10 16 0.00 0.00
8:15 am 08:15 Mostly Cloudy 57 14 45 7.4 65 65 N 7 11 30.41 1030 10 16 0.00 0.00
8:35 am 08:35 Mostly Cloudy 58 14.5 45 7.4 63 63 N 5 7 30.41 1030 10 16 0.00 0.00
8:55 am 08:55 Mostly Cloudy 58 14.7 44 6.7 59 59 N 6 9 30.41 1030 10 16 0.00 0.00
9:15 am 09:15 Mostly Cloudy 59 15 45 7.2 60 60 NE 6 9 30.41 1030 10 16 0.00 0.00
9:35 am 09:35 Partly Cloudy 60 15.5 44 6.9 57 57 NE 6 9 30.41 1030 10 16 0.00 0.00
9:55 am 09:55 Mostly Cloudy 60 15.6 43 6 53 53 NE 7 11 30.41 1030 10 16 0.00 0.00
10:15 am 10:15 Partly Cloudy 61 16 42 5.8 51 51 ENE 7 11 30.42 1030 10 16 0.00 0.00
10:35 am 10:35 Partly Cloudy 62 16.5 43 6.1 50 50 NE 5 7 30.41 1030 10 16 0.00 0.00
10:55 am 10:55 Mostly Cloudy 62 16.5 43 6 50 50 ENE 5 7 30.42 1030 10 16 0.00 0.00
11:15 am 11:15 Cloudy 62 16.5 43 6.1 50 50 N 3 6 30.41 1030 10 16 0.00 0.00
11:35 am 11:35 Cloudy 62 16.5 43 6.1 50 50 Calm 30.41 1030 10 16 0.00 0.00
11:55 am 11:55 Cloudy 62 16.5 43 6.1 50 50 NNW 5 7 30.41 1030 10 16 0.00 0.00
12:15 pm 12:15 Cloudy 63 17 43 6.2 49 49 NNW 6 9 30.40 1030 10 16 0.00 0.00
12:35 pm 12:35 Cloudy 62 16.6 44 6.5 52 52 NW 5 7 30.40 1030 10 16 0.00 0.00
12:55 pm 12:55 Cloudy 62 16.7 44 6.6 52 52 NW 7 11 30.39 1029 10 16 0.00 0.00
1:15 pm 13:15 Cloudy 63 17.1 44 6.8 51 51 WNW 6 9 30.38 1029 10 16 0.00 0.00
1:35 pm 13:35 Mostly Cloudy 64 17.9 44 6.9 49 49 WNW 6 9 30.37 1029 10 16 0.00 0.00
1:55 pm 13:55 Partly Cloudy 66 19 44 6.7 45 45 WNW 7 11 30.35 1028 10 16 0.00 0.00
2:15 pm 14:15 Sunny 66 18.8 43 6.1 44 44 WNW 7 11 30.35 1028 10 16 0.00 0.00
2:35 pm 14:35 Sunny 68 20 43 6.1 40 40 N 3 6 30.33 1027 10 16 0.00 0.00
2:55 pm 14:55 Sunny 69 20.7 43 6.3 39 39 NNW 6 9 30.31 1026 10 16 0.00 0.00
3:15 pm 15:15 Sunny 70 21 43 6.3 39 39 NNW 7 11 30.31 1026 10 16 0.00 0.00
3:35 pm 15:35 Sunny 71 21.4 44 6.5 38 38 N 7 11 30.29 1026 10 16 0.00 0.00
3:55 pm 15:55 Sunny 72 22.2 44 6.5 36 36 NNW 5 7 30.28 1025 10 16 0.00 0.00
4:15 pm 16:15 Sunny 73 22.9 43 6.3 34 34 NNW 5 7 30.26 1025 10 16 0.00 0.00
4:35 pm 16:35 Sunny 73 23 44 6.5 35 35 WNW 3 6 30.26 1025 10 16 0.00 0.00
4:55 pm 16:55 Sunny 74 23.3 43 6 33 33 NNW 3 6 30.25 1024 10 16 0.00 0.00
5:15 pm 17:15 Sunny 75 23.7 44 6.5 33 33 NW 9 15 30.24 1024 10 16 0.00 0.00
5:35 pm 17:35 Sunny 75 24 44 6.4 32 32 NNW 8 13 30.23 1024 10 16 0.00 0.00
5:55 pm 17:55 Sunny 75 24 42 5.6 31 31 N 5 7 30.22 1023 10 16 0.00 0.00
6:15 pm 18:15 Sunny 75 24.1 42 5.5 30 30 NE 5 7 30.22 1023 10 16 0.00 0.00
6:35 pm 18:35 Sunny 75 24.1 41 5.2 30 30 Calm 30.22 1023 10 16 0.00 0.00
6:55 pm 18:55 Sunny 76 24.5 43 6.1 31 31 Calm 30.22 1023 10 16 0.00 0.00
7:15 pm 19:15 Sunny 75 24 42 5.8 31 31 Calm 30.22 1023 10 16 0.00 0.00
7:35 pm 19:35 Sunny 75 24.1 43 6.3 32 32 NW 3 6 30.22 1023 10 16 0.00 0.00
7:55 pm 19:55 Sunny 74 23.5 45 7.2 35 35 WNW 3 6 30.23 1024 10 16 0.00 0.00
8:15 pm 20:15 Sunny 73 23 46 8 38 38 WNW 3 6 30.23 1024 10 16 0.00 0.00
8:35 pm 20:35 Sunny 72 22.3 47 8.3 41 41 Calm 30.24 1024 10 16 0.00 0.00
8:55 pm 20:55 Sunny 71 21.9 47 8.3 42 42 Calm 30.24 1024 10 16 0.00 0.00
9:15 pm 21:15 Clear 69 20.5 49 9.2 48 48 Calm 30.25 1024 10 16 0.00 0.00
9:35 pm 21:35 Clear 70 20.9 46 7.5 42 42 Calm 30.26 1025 10 16 0.00 0.00
9:55 pm 21:55 Clear 68 19.8 48 9 50 50 Calm 30.27 1025 10 16 0.00 0.00
10:15 pm 22:15 Clear 64 17.9 51 10.3 61 61 S 3 6 30.29 1026 10 16 0.00 0.00
10:35 pm 22:35 Clear 61 15.9 51 10.7 71 71 SSW 5 7 30.31 1026 10 16 0.00 0.00
10:55 pm 22:55 Clear 63 17 50 9.9 63 63 SSW 5 7 30.30 1026 10 16 0.00 0.00
11:15 pm 23:15 Clear 60 15.8 49 9.7 67 67 S 3 6 30.32 1027 10 16 0.00 0.00
11:35 pm 23:35 Clear 60 15.7 49 9.7 68 68 SW 3 6 30.32 1027 10 16 0.00 0.00
11:55 pm 23:55 Clear 63 17 49 9.3 61 61 SW 3 6 30.31 1026 10 16 0.00 0.00

Powered by AerisWeather